Melbourne Airport

Airport
ICAO code: 
YMML
IATA Code: 
MEL
Summary
ICAO Region: 
APAC
Territory: 
Location: 
Tullamarine, Victoria
Serving: 
Melbourne
Elevation: 
434 ft
Coordinates: 
Aerial View: 
37° 40' 10.972" S, 144° 50' 54.542" E
Airport BS: 
Bird Strike
Airport WX: 
Cumulonimbus
Metar
Observation
YMML 040730Z 18008KT 9999 FEW021 BKN029 11/08 Q1027
Station
Melbourne Airport
Date/Time
2022-07-04 07:30:00
Wind direction
180°
Wind speed
08 kts
Lowest cloud amount
few clouds
Temperature
11°C
Dew point
8°C
Humidity
81%
QNH
1027 hPa
Weather condition
n/a

Description

Melbourne Airport, also known as Tullamarine Airport, is the primary airport serving the city of Melbourne and the second busiest in Australia.

Climatology

Mild temperate oceanic climate (Köppen climate classification Cfb). Melbourne is known for its changeable weather conditions caused by the city's location on the boundary of the very hot inland areas and the cold southern ocean. Cold fronts in the spring and summer months can be associated with severe weather.

Runways

Designator Length Width Surface Rops
9/27 2286 45 ASP Yes/Yes
16/34 3657 45 ASP Yes/Yes

SKYbrary Partners:

Safety knowledge contributed by: